Regional Weather Roundup
Issued by NWS

Home | Current Version | Previous Version | Text Only | Print | Product List | Glossary On
Versions: 1 2 3 4 5 6 7 8 9 10 11 12 13 14 15 16 17 18 19 20 21 22 23 24 25 26 27 28 29 30 31 32 33 34 35 36 37 38 39 40 41 42 43 44 45 46 47 48 49 50
000
ASUS44 KOUN 042010
RWROK

WEATHER ROUNDUP FOR OKLAHOMA
NATIONAL WEATHER SERVICE NORMAN OK
300 PM CDT TUE AUG 04 2015

NOTE: "FAIR" INDICATES FEW OR NO CLOUDS BELOW 12,000 FEET WITH NO
      SIGNIFICANT WEATHER AND/OR OBSTRUCTIONS TO VISIBILITY.

OKZ001>007-009>012-014-015-017-042100-
NORTHWEST OKLAHOMA AND THE PANHANDLE

CITY           SKY/WX    TMP DP  RH WIND       PRES   REMARKS
GUYMON         SUNNY     85  68  56 S13G18    29.94F
ENID/WOODRING  PTSUNNY   91  68  46 SE15G23   29.91F HX  95
$$

OKZ016-021>023-033>039-044-045-042100-
SOUTHWEST OKLAHOMA

CITY           SKY/WX    TMP DP  RH WIND       PRES   REMARKS
LAWTON/REGL    LGT RAIN  85  71  63 SE12      29.93F HX  90
LAWTON/FT SILL PTSUNNY   83  72  68 S15       29.92F
FREDERICK      CLOUDY    88  72  58 S12       29.90F HX  94
CLINTON        SUNNY     89  69  51 S14       29.95F HX  93
HOBART         SUNNY     90  70  51 S15       29.94F HX  95
ALTUS AFB      MOSUNNY   89  71  54 S14       29.92F HX  95
$$

OKZ018>020-024>031-042100-
CENTRAL OKLAHOMA

CITY           SKY/WX    TMP DP  RH WIND       PRES   REMARKS
OKLAHOMA CITY  PTSUNNY   86  69  56 S17G25    29.93F HX  90
OKC/WILEY POST MOSUNNY   88  68  51 S21G26    29.93F HX  91
OKC/TINKER AFB MOSUNNY   85  69  57 S17       29.93F
STILLWATER     CLOUDY    83  69  62 S12       29.94F
GUTHRIE        MOSUNNY   86  67  52 S14       29.93F
$$

OKZ008-013-054>072-042100-
NORTHEAST OKLAHOMA

CITY           SKY/WX    TMP DP  RH WIND       PRES   REMARKS
TULSA          CLOUDY    82  71  69 E6        29.97S
TULSA/JONES    CLOUDY    82  70  66 E7        29.96F
PONCA CITY     PTSUNNY   78  73  84 E10       29.95F
MUSKOGEE       PTSUNNY   84  71  65 N6        29.99S
$$

OKZ032-040>043-046>053-073>077-042100-
SOUTH CENTRAL/SOUTHEAST OKLAHOMA

CITY           SKY/WX    TMP DP  RH WIND       PRES   REMARKS
ARDMORE/DWNTWN PTSUNNY   86  68  54 SE7       29.94F
MCALESTER      CLOUDY    90  68  48 S7        29.96S HX  94
$$



USA.gov is the U.S. government's official web portal to all federal, state and local government web resources and services.